Regional Weather Roundup
Issued by NWS

Home | Current Version | Previous Version | Graphics & Text | Print | Product List | Glossary On
Versions: 1 2 3 4 5 6 7 8 9 10 11 12 13 14 15 16 17 18 19 20 21 22 23 24 25 26 27 28 29 30 31 32 33 34 35 36 37 38 39 40 41 42 43 44 45 46 47 48 49 50
000
ASUS43 KOAX 212010
RWRNE

WEATHER ROUNDUP FOR NEBRASKA
NATIONAL WEATHER SERVICE OMAHA NE
300 PM CDT MON MAY 21 2018

NOTES: SATELLITE DATA IS BEING USED TO AUGMENT CLOUD COVER ABOVE
       12000 FEET.
       "FAIR" INDICATES FEW OR NO CLOUDS BELOW 12,000 FEET WITH NO
       SIGNIFICANT WEATHER AND/OR OBSTRUCTIONS TO VISIBILITY.


NEZ001>004-019>022-054>056-212100-
NEBRASKA PANHANDLE

CITY           SKY/WX    TMP DP  RH WIND       PRES   REMARKS
SCOTTSBLUFF    SUNNY     70  56  61 SE8       29.97F
ALLIANCE       SUNNY     67  54  63 S12       29.98F
CHADRON        SUNNY     74  56  53 E6        29.92F
GORDON         FAIR      72  54  52 S10       29.96F
KIMBALL        SUNNY     69  52  54 E8        30.01F
SIDNEY         SUNNY     69  53  56 SE9       30.00F
$$

NEZ057>060-069>072-079>082-212100-
SOUTHWEST NEBRASKA

CITY           SKY/WX    TMP DP  RH WIND       PRES   REMARKS
NORTH PLATTE   PTSUNNY   74  59  59 S16       29.98F
IMPERIAL       PTSUNNY   75  56  51 S13G21    29.98F
LEXINGTON      PTSUNNY   71  59  65 S14G21    30.00F
MCCOOK         MOSUNNY   77  59  53 S20G30    29.96F
OGALLALA       PTSUNNY   70  57  61 S12G20    29.99F
$$

NEZ005>010-023>029-035>040-094-212100-
NORTH CENTRAL NEBRASKA

CITY           SKY/WX    TMP DP  RH WIND       PRES   REMARKS
VALENTINE      MOSUNNY   75  50  41 S9G17     29.96F
AINSWORTH      PTSUNNY   73  54  52 S9        29.98F
BROKEN BOW     CLOUDY    70  57  63 S15       30.00F
O`NEILL        SUNNY     73  48  42 SW6       30.00F
ORD            MOSUNNY   71  57  61 S12G17    29.99F
THEDFORD       CLOUDY    72  53  52 SW12      29.99F
$$

NEZ041-046>049-061>064-073>077-083>087-212100-
SOUTH CENTRAL NEBRASKA

CITY           SKY/WX    TMP DP  RH WIND       PRES   REMARKS
GRAND ISLAND   SUNNY     71  55  56 S12G18    30.03F
AURORA         MOSUNNY   70  55  57 S7        30.03F
HASTINGS       SUNNY     71  57  61 S8G17     30.03F
HEBRON         SUNNY     75  53  45 SW7       30.03F
HOLDREGE       SUNNY     71  58  64 S14G21    30.00F
KEARNEY        MOSUNNY   71  58  63 S14       30.02F
YORK           MOSUNNY   72  57  60 SW10      30.04F
$$

NEZ011>018-030>034-042>045-212100-
NORTHEAST NEBRASKA

CITY           SKY/WX    TMP DP  RH WIND       PRES   REMARKS
NORFOLK        MOSUNNY   72  50  45 W9        29.99F
ALBION         MOSUNNY   70  56  61 S8        30.01F
BLAIR          CLOUDY    67  58  73 W3        30.02F
COLUMBUS       SUNNY     72  54  53 SW10G17   30.02F
FREMONT        MOSUNNY   72  57  60 CALM      30.02F
TEKAMAH        MOSUNNY   68  58  70 VRB7      30.01F
WAYNE          PTSUNNY   69  57  63 W3        30.00F
$$

NEZ050>053-065>068-078-088>093-212100-
SOUTHEAST NEBRASKA

CITY           SKY/WX    TMP DP  RH WIND       PRES   REMARKS
LINCOLN        SUNNY     73  54  51 SW9G17    30.03F
OMAHA EPPLEY   MOSUNNY   70  57  63 VRB3      30.01F
BEATRICE       SUNNY     74  56  52 W6        30.03F
FALLS CITY     MOSUNNY   75  57  53 SW6       30.02F
NEBRASKA CITY  SUNNY     71  58  63 CALM      30.02F
PLATTSMOUTH    SUNNY     69  56  63 NW3       30.03F
$$

NEZ044-045-051>053-067-212100-
OMAHA AREA

CITY           SKY/WX    TMP DP  RH WIND       PRES   REMARKS
OMAHA EPPLEY   MOSUNNY   70  57  63 VRB3      30.01F
BLAIR          CLOUDY    67  58  73 W3        30.02F
FREMONT        MOSUNNY   72  57  60 CALM      30.02F
MILLARD        MOSUNNY   70  59  69 W5        30.02F
OFFUTT AFB     MOSUNNY   69  57  65 W3        30.01F
PLATTSMOUTH    SUNNY     69  56  63 NW3       30.03F
WAHOO          FAIR      74  53  48 SW7       30.01F
$$



USA.gov is the U.S. government's official web portal to all federal, state and local government web resources and services.